Time,TemperatureF,DewpointF,PressureIn,WindDirection,WindDirectionDegrees,WindSpeedMPH,WindSpeedGustMPH,Humidity,HourlyPrecipIn,Conditions,Clouds,dailyrainin,SoftwareType,DateUTC
2013-10-14 00:04:00,65.7,44.3,29.87,East,85,2.0,8.0,46,0.00,,,0.00,WeatherTracker,2013-10-14 06:04:00,
2013-10-14 00:09:00,65.6,44.3,29.87,NNE,28,1.0,7.0,46,0.00,,,0.00,WeatherTracker,2013-10-14 06:09:00,
2013-10-14 00:14:00,65.6,44.3,29.87,ESE,103,4.0,6.0,46,0.00,,,0.00,WeatherTracker,2013-10-14 06:14:00,
2013-10-14 00:19:00,65.6,44.3,29.88,East,99,6.0,7.0,46,0.00,,,0.00,WeatherTracker,2013-10-14 06:19:00,
2013-10-14 00:24:00,65.3,44.5,29.88,East,91,1.0,7.0,47,0.00,,,0.00,WeatherTracker,2013-10-14 06:24:00,
2013-10-14 00:29:00,65.1,44.4,29.88,East,96,7.0,9.0,47,0.00,,,0.00,WeatherTracker,2013-10-14 06:29:00,
2013-10-14 00:34:00,64.4,44.8,29.88,East,88,0.0,9.0,49,0.00,,,0.00,WeatherTracker,2013-10-14 06:34:00,
2013-10-14 00:39:00,63.6,44.6,29.88,East,96,0.0,8.0,50,0.00,,,0.00,WeatherTracker,2013-10-14 06:39:00,
2013-10-14 00:45:00,63.1,44.7,29.88,SE,128,1.0,3.0,51,0.00,,,0.00,WeatherTracker,2013-10-14 06:45:00,
2013-10-14 00:50:00,62.6,45.2,29.88,SSE,155,0.0,3.0,53,0.00,,,0.00,WeatherTracker,2013-10-14 06:50:00,
2013-10-14 00:55:00,62.2,45.3,29.88,ESE,103,0.0,5.0,54,0.00,,,0.00,WeatherTracker,2013-10-14 06:55:00,
2013-10-14 01:00:00,61.9,45.1,29.88,East,94,2.0,5.0,54,0.00,,,0.00,WeatherTracker,2013-10-14 07:00:00,
2013-10-14 01:05:00,61.6,45.3,29.88,ESE,115,0.0,7.0,55,0.00,,,0.00,WeatherTracker,2013-10-14 07:05:00,
2013-10-14 01:10:00,61.4,45.6,29.88,ESE,115,0.0,7.0,56,0.00,,,0.00,WeatherTracker,2013-10-14 07:10:00,
2013-10-14 01:15:00,61.3,45.0,29.88,ESE,110,1.0,3.0,55,0.00,,,0.00,WeatherTracker,2013-10-14 07:15:00,
2013-10-14 01:20:00,61.7,44.9,29.88,NE,42,0.0,7.0,54,0.00,,,0.00,WeatherTracker,2013-10-14 07:20:00,
2013-10-14 01:25:00,62.0,45.2,29.88,NNE,24,1.0,7.0,54,0.00,,,0.00,WeatherTracker,2013-10-14 07:25:00,
2013-10-14 01:30:00,62.1,44.8,29.88,ESE,110,0.0,5.0,53,0.00,,,0.00,WeatherTracker,2013-10-14 07:30:00,
2013-10-14 01:35:00,62.1,44.8,29.88,SSE,152,0.0,3.0,53,0.00,,,0.00,WeatherTracker,2013-10-14 07:35:00,
2013-10-14 01:40:00,62.1,44.8,29.88,ESE,108,0.0,3.0,53,0.00,,,0.00,WeatherTracker,2013-10-14 07:40:00,
2013-10-14 01:45:00,62.0,44.7,29.88,ESE,105,0.0,3.0,53,0.00,,,0.00,WeatherTracker,2013-10-14 07:45:00,
2013-10-14 01:50:00,61.7,44.9,29.88,NNE,29,1.0,3.0,54,0.00,,,0.00,WeatherTracker,2013-10-14 07:50:00,
2013-10-14 01:55:00,61.5,44.7,29.88,ENE,74,2.0,3.0,54,0.00,,,0.00,WeatherTracker,2013-10-14 07:55:00,
2013-10-14 02:00:00,61.4,44.6,29.88,NNW,346,0.0,3.0,54,0.00,,,0.00,WeatherTracker,2013-10-14 08:00:00,
2013-10-14 02:05:00,61.0,44.2,29.89,NNW,347,0.0,3.0,54,0.00,,,0.00,WeatherTracker,2013-10-14 08:05:00,
2013-10-14 02:10:00,59.9,44.6,29.89,NNW,347,0.0,2.0,57,0.00,,,0.00,WeatherTracker,2013-10-14 08:10:00,
2013-10-14 02:15:00,58.9,45.0,29.89,South,170,0.0,2.0,60,0.00,,,0.00,WeatherTracker,2013-10-14 08:15:00,
2013-10-14 02:20:00,58.5,45.1,29.89,South,170,0.0,2.0,61,0.00,,,0.00,WeatherTracker,2013-10-14 08:20:00,
2013-10-14 02:26:00,57.9,45.0,29.89,South,170,0.0,0.0,62,0.00,,,0.00,WeatherTracker,2013-10-14 08:26:00,
2013-10-14 02:31:00,57.9,45.0,29.89,South,170,1.0,2.0,62,0.00,,,0.00,WeatherTracker,2013-10-14 08:31:00,
2013-10-14 02:36:00,57.9,44.5,29.89,South,171,0.0,2.0,61,0.00,,,0.00,WeatherTracker,2013-10-14 08:36:00,
2013-10-14 02:41:00,57.9,44.5,29.88,NW,308,0.0,2.0,61,0.00,,,0.00,WeatherTracker,2013-10-14 08:41:00,
2013-10-14 02:46:00,57.8,44.4,29.88,NW,308,0.0,2.0,61,0.00,,,0.00,WeatherTracker,2013-10-14 08:46:00,
2013-10-14 02:51:00,57.5,44.6,29.89,NW,308,0.0,2.0,62,0.00,,,0.00,WeatherTracker,2013-10-14 08:51:00,
2013-10-14 02:56:00,57.1,44.6,29.88,NW,308,0.0,1.0,63,0.00,,,0.00,WeatherTracker,2013-10-14 08:56:00,
2013-10-14 03:01:00,56.7,44.2,29.89,NW,308,0.0,1.0,63,0.00,,,0.00,WeatherTracker,2013-10-14 09:01:00,
2013-10-14 03:06:00,56.7,44.2,29.89,NW,308,1.0,1.0,63,0.00,,,0.00,WeatherTracker,2013-10-14 09:06:00,
2013-10-14 03:11:00,56.9,44.4,29.89,NW,308,0.0,2.0,63,0.00,,,0.00,WeatherTracker,2013-10-14 09:11:00,
2013-10-14 03:16:00,56.6,44.2,29.88,NW,308,0.0,2.0,63,0.00,,,0.00,WeatherTracker,2013-10-14 09:16:00,
2013-10-14 03:21:00,55.8,44.2,29.88,NW,309,0.0,1.0,65,0.00,,,0.00,WeatherTracker,2013-10-14 09:21:00,
2013-10-14 03:26:00,55.0,44.2,29.88,NW,309,0.0,2.0,67,0.00,,,0.00,WeatherTracker,2013-10-14 09:26:00,
2013-10-14 03:31:00,54.8,44.4,29.89,NW,308,0.0,2.0,68,0.00,,,0.00,WeatherTracker,2013-10-14 09:31:00,
2013-10-14 03:36:00,54.5,44.5,29.89,NW,309,0.0,1.0,69,0.00,,,0.00,WeatherTracker,2013-10-14 09:36:00,
2013-10-14 03:41:00,54.2,44.6,29.89,NW,308,0.0,1.0,70,0.00,,,0.00,WeatherTracker,2013-10-14 09:41:00,
2013-10-14 03:46:00,54.0,44.4,29.89,NW,309,0.0,1.0,70,0.00,,,0.00,WeatherTracker,2013-10-14 09:46:00,
2013-10-14 03:51:00,54.0,44.4,29.89,NW,308,0.0,2.0,70,0.00,,,0.00,WeatherTracker,2013-10-14 09:51:00,
2013-10-14 03:56:00,54.0,44.4,29.89,NW,309,0.0,2.0,70,0.00,,,0.00,WeatherTracker,2013-10-14 09:56:00,
2013-10-14 04:01:00,53.8,44.2,29.89,NW,308,0.0,2.0,70,0.00,,,0.00,WeatherTracker,2013-10-14 10:01:00,
2013-10-14 04:06:00,53.4,44.2,29.89,NW,308,0.0,0.0,71,0.00,,,0.00,WeatherTracker,2013-10-14 10:06:00,
2013-10-14 04:11:00,53.2,44.0,29.89,NW,308,0.0,0.0,71,0.00,,,0.00,WeatherTracker,2013-10-14 10:11:00,
2013-10-14 04:16:00,53.0,43.9,29.89,NW,309,0.0,0.0,71,0.00,,,0.00,WeatherTracker,2013-10-14 10:16:00,
2013-10-14 04:21:00,52.9,44.1,29.90,NW,309,0.0,0.0,72,0.00,,,0.00,WeatherTracker,2013-10-14 10:21:00,
2013-10-14 04:27:00,52.7,43.9,29.89,NW,309,0.0,0.0,72,0.00,,,0.00,WeatherTracker,2013-10-14 10:27:00,
2013-10-14 04:32:00,52.5,44.1,29.90,NW,308,0.0,0.0,73,0.00,,,0.00,WeatherTracker,2013-10-14 10:32:00,
2013-10-14 04:37:00,52.4,44.0,29.90,NW,308,0.0,0.0,73,0.00,,,0.00,WeatherTracker,2013-10-14 10:37:00,
2013-10-14 04:42:00,52.9,42.2,29.90,NW,308,0.0,0.0,67,0.00,,,0.00,WeatherTracker,2013-10-14 10:42:00,
2013-10-14 04:47:00,53.5,42.0,29.90,NW,308,0.0,0.0,65,0.00,,,0.00,WeatherTracker,2013-10-14 10:47:00,
2013-10-14 04:52:00,53.3,41.8,29.90,NW,309,0.0,0.0,65,0.00,,,0.00,WeatherTracker,2013-10-14 10:52:00,
2013-10-14 04:57:00,53.6,40.5,29.91,NW,308,0.0,0.0,61,0.00,,,0.00,WeatherTracker,2013-10-14 10:57:00,
2013-10-14 05:02:00,53.5,40.4,29.91,NW,309,0.0,0.0,61,0.00,,,0.00,WeatherTracker,2013-10-14 11:02:00,
2013-10-14 05:07:00,53.8,39.8,29.91,NW,309,0.0,1.0,59,0.00,,,0.00,WeatherTracker,2013-10-14 11:07:00,
2013-10-14 05:12:00,54.7,38.9,29.91,NNE,30,0.0,2.0,55,0.00,,,0.00,WeatherTracker,2013-10-14 11:12:00,
2013-10-14 05:17:00,55.0,38.2,29.91,NNE,30,0.0,2.0,53,0.00,,,0.00,WeatherTracker,2013-10-14 11:17:00,
2013-10-14 05:22:00,55.0,38.2,29.91,NNE,29,0.0,2.0,53,0.00,,,0.00,WeatherTracker,2013-10-14 11:22:00,
2013-10-14 05:27:00,54.2,37.9,29.92,NNE,30,0.0,1.0,54,0.00,,,0.00,WeatherTracker,2013-10-14 11:27:00,
2013-10-14 05:32:00,53.2,38.4,29.92,NNE,29,0.0,0.0,57,0.00,,,0.00,WeatherTracker,2013-10-14 11:32:00,
2013-10-14 05:37:00,52.3,38.8,29.92,NNE,30,0.0,1.0,60,0.00,,,0.00,WeatherTracker,2013-10-14 11:37:00,
2013-10-14 05:42:00,51.8,38.8,29.92,NNE,29,0.0,2.0,61,0.00,,,0.00,WeatherTracker,2013-10-14 11:42:00,
2013-10-14 05:47:00,51.5,38.1,29.93,NNE,29,0.0,2.0,60,0.00,,,0.00,WeatherTracker,2013-10-14 11:47:00,
2013-10-14 05:52:00,51.5,38.1,29.93,NNE,29,0.0,1.0,60,0.00,,,0.00,WeatherTracker,2013-10-14 11:52:00,
2013-10-14 05:58:00,51.2,38.2,29.93,NNE,29,0.0,1.0,61,0.00,,,0.00,WeatherTracker,2013-10-14 11:58:00,
2013-10-14 06:03:00,51.0,38.0,29.94,NNE,29,0.0,1.0,61,0.00,,,0.00,WeatherTracker,2013-10-14 12:03:00,
2013-10-14 06:08:00,51.0,38.0,29.93,NNE,29,0.0,0.0,61,0.00,,,0.00,WeatherTracker,2013-10-14 12:08:00,
2013-10-14 06:13:00,51.5,37.2,29.94,NNE,29,0.0,1.0,58,0.00,,,0.00,WeatherTracker,2013-10-14 12:13:00,
2013-10-14 06:18:00,51.9,36.7,29.94,SSE,161,0.0,2.0,56,0.00,,,0.00,WeatherTracker,2013-10-14 12:18:00,
2013-10-14 06:23:00,51.0,37.6,29.94,SSE,161,0.0,2.0,60,0.00,,,0.00,WeatherTracker,2013-10-14 12:23:00,
2013-10-14 06:28:00,51.0,36.3,29.94,SSW,200,0.0,3.0,57,0.00,,,0.00,WeatherTracker,2013-10-14 12:28:00,
2013-10-14 06:33:00,51.7,36.1,29.94,WSW,252,0.0,3.0,55,0.00,,,0.00,WeatherTracker,2013-10-14 12:33:00,
2013-10-14 06:38:00,51.2,36.0,29.94,WSW,252,0.0,3.0,56,0.00,,,0.00,WeatherTracker,2013-10-14 12:38:00,
2013-10-14 06:43:00,50.6,35.9,29.94,WSW,252,0.0,0.0,57,0.00,,,0.00,WeatherTracker,2013-10-14 12:43:00,
2013-10-14 06:48:00,50.3,36.1,29.95,WSW,252,0.0,2.0,58,0.00,,,0.00,WeatherTracker,2013-10-14 12:48:00,
2013-10-14 06:53:00,50.0,35.8,29.95,WSW,252,0.0,2.0,58,0.00,,,0.00,WeatherTracker,2013-10-14 12:53:00,
2013-10-14 06:58:00,49.9,36.1,29.95,WSW,252,0.0,1.0,59,0.00,,,0.00,WeatherTracker,2013-10-14 12:58:00,
2013-10-14 07:03:00,49.6,36.3,29.95,WSW,252,0.0,1.0,60,0.00,,,0.00,WeatherTracker,2013-10-14 13:03:00,
2013-10-14 07:08:00,49.6,35.9,29.95,WSW,252,0.0,1.0,59,0.00,,,0.00,WeatherTracker,2013-10-14 13:08:00,
2013-10-14 07:13:00,49.9,35.7,29.95,WSW,252,0.0,0.0,58,0.00,,,0.00,WeatherTracker,2013-10-14 13:13:00,
2013-10-14 07:18:00,50.0,35.4,29.95,WSW,252,0.0,0.0,57,0.00,,,0.00,WeatherTracker,2013-10-14 13:18:00,
2013-10-14 07:23:00,49.5,35.8,29.95,WSW,252,0.0,1.0,59,0.00,,,0.00,WeatherTracker,2013-10-14 13:23:00,
2013-10-14 07:28:00,49.2,35.9,29.95,WSW,252,0.0,1.0,60,0.00,,,0.00,WeatherTracker,2013-10-14 13:28:00,
2013-10-14 07:33:00,49.4,36.1,29.96,WSW,252,0.0,1.0,60,0.00,,,0.00,WeatherTracker,2013-10-14 13:33:00,
2013-10-14 07:38:00,49.6,36.3,29.96,WSW,252,0.0,1.0,60,0.00,,,0.00,WeatherTracker,2013-10-14 13:38:00,
2013-10-14 07:43:00,50.2,36.0,29.96,WSW,252,0.0,1.0,58,0.00,,,0.00,WeatherTracker,2013-10-14 13:43:00,
2013-10-14 07:48:00,51.2,35.6,29.96,WSW,252,0.0,1.0,55,0.00,,,0.00,WeatherTracker,2013-10-14 13:48:00,
2013-10-14 07:53:00,52.4,35.3,29.96,WSW,252,0.0,1.0,52,0.00,,,0.00,WeatherTracker,2013-10-14 13:53:00,
2013-10-14 07:58:00,53.3,35.1,29.96,WSW,252,0.0,1.0,50,0.00,,,0.00,WeatherTracker,2013-10-14 13:58:00,
2013-10-14 08:04:00,54.2,35.5,29.97,WSW,252,0.0,1.0,49,0.00,,,0.00,WeatherTracker,2013-10-14 14:04:00,
2013-10-14 08:09:00,54.9,35.6,29.96,WSW,253,0.0,1.0,48,0.00,,,0.00,WeatherTracker,2013-10-14 14:09:00,
2013-10-14 08:14:00,55.5,35.1,29.96,WSW,253,0.0,3.0,46,0.00,,,0.00,WeatherTracker,2013-10-14 14:14:00,
2013-10-14 08:19:00,56.1,35.1,29.97,WSW,253,0.0,3.0,45,0.00,,,0.00,WeatherTracker,2013-10-14 14:19:00,
2013-10-14 08:24:00,56.7,35.0,29.97,WSW,253,0.0,1.0,44,0.00,,,0.00,WeatherTracker,2013-10-14 14:24:00,
2013-10-14 08:29:00,57.2,34.9,29.97,WSW,250,0.0,3.0,43,0.00,,,0.00,WeatherTracker,2013-10-14 14:29:00,
2013-10-14 08:34:00,57.7,34.8,29.97,West,271,0.0,3.0,42,0.00,,,0.00,WeatherTracker,2013-10-14 14:34:00,
2013-10-14 08:39:00,58.1,35.1,29.98,SSE,162,0.0,2.0,42,0.00,,,0.00,WeatherTracker,2013-10-14 14:39:00,
2013-10-14 08:44:00,58.4,34.8,29.98,South,179,0.0,3.0,41,0.00,,,0.00,WeatherTracker,2013-10-14 14:44:00,
2013-10-14 08:49:00,58.9,35.2,29.98,SSE,157,2.0,3.0,41,0.00,,,0.00,WeatherTracker,2013-10-14 14:49:00,
2013-10-14 08:54:00,59.1,35.4,29.98,SSE,148,3.0,5.0,41,0.00,,,0.00,WeatherTracker,2013-10-14 14:54:00,
2013-10-14 08:59:00,59.4,35.1,29.98,South,171,2.0,6.0,40,0.00,,,0.00,WeatherTracker,2013-10-14 14:59:00,
2013-10-14 09:04:00,59.8,35.4,29.98,SSE,147,0.0,6.0,40,0.00,,,0.00,WeatherTracker,2013-10-14 15:04:00,
2013-10-14 09:09:00,60.3,35.2,29.97,SE,142,3.0,6.0,39,0.00,,,0.00,WeatherTracker,2013-10-14 15:09:00,
2013-10-14 09:14:00,60.9,35.1,29.97,South,173,3.0,7.0,38,0.00,,,0.00,WeatherTracker,2013-10-14 15:14:00,
2013-10-14 09:19:00,61.2,34.7,29.98,SE,124,6.0,7.0,37,0.00,,,0.00,WeatherTracker,2013-10-14 15:19:00,
2013-10-14 09:24:00,61.1,34.6,29.98,SSW,203,3.0,9.0,37,0.00,,,0.00,WeatherTracker,2013-10-14 15:24:00,
2013-10-14 09:29:00,61.5,35.0,29.98,SE,128,4.0,9.0,37,0.00,,,0.00,WeatherTracker,2013-10-14 15:29:00,
2013-10-14 09:34:00,61.5,34.3,29.98,East,98,3.0,8.0,36,0.00,,,0.00,WeatherTracker,2013-10-14 15:34:00,
2013-10-14 09:39:00,61.7,34.5,29.98,SE,138,2.0,8.0,36,0.00,,,0.00,WeatherTracker,2013-10-14 15:39:00,
2013-10-14 09:44:00,61.8,34.6,29.98,South,170,3.0,8.0,36,0.00,,,0.00,WeatherTracker,2013-10-14 15:44:00,
2013-10-14 09:49:00,61.8,34.6,29.98,South,186,3.0,8.0,36,0.00,,,0.00,WeatherTracker,2013-10-14 15:49:00,
2013-10-14 09:54:00,62.0,34.7,29.98,SE,139,4.0,8.0,36,0.00,,,0.00,WeatherTracker,2013-10-14 15:54:00,
2013-10-14 09:59:00,62.6,34.6,29.98,SSE,153,4.0,7.0,35,0.00,,,0.00,WeatherTracker,2013-10-14 15:59:00,
2013-10-14 10:04:00,62.9,34.8,29.98,SE,146,4.0,7.0,35,0.00,,,0.00,WeatherTracker,2013-10-14 16:04:00,
2013-10-14 10:09:00,62.7,34.7,29.97,SE,143,4.0,7.0,35,0.00,,,0.00,WeatherTracker,2013-10-14 16:09:00,
2013-10-14 10:14:00,62.6,34.6,29.98,SE,126,5.0,7.0,35,0.00,,,0.00,WeatherTracker,2013-10-14 16:14:00,
2013-10-14 10:19:00,62.5,33.7,29.98,SSE,147,2.0,9.0,34,0.00,,,0.00,WeatherTracker,2013-10-14 16:19:00,
2013-10-14 10:24:00,63.3,35.2,29.98,East,100,6.0,9.0,35,0.00,,,0.00,WeatherTracker,2013-10-14 16:24:00,
2013-10-14 10:29:00,63.0,34.2,29.98,SE,130,2.0,7.0,34,0.00,,,0.00,WeatherTracker,2013-10-14 16:29:00,
2013-10-14 10:34:00,63.6,34.0,29.98,SSE,153,2.0,11.0,33,0.00,,,0.00,WeatherTracker,2013-10-14 16:34:00,
2013-10-14 10:40:00,63.9,34.2,29.98,SE,137,6.0,11.0,33,0.00,,,0.00,WeatherTracker,2013-10-14 16:40:00,
2013-10-14 10:45:00,63.4,33.0,29.98,SE,132,7.0,11.0,32,0.00,,,0.00,WeatherTracker,2013-10-14 16:45:00,
2013-10-14 10:50:00,63.2,33.6,29.98,SSW,192,1.0,10.0,33,0.00,,,0.00,WeatherTracker,2013-10-14 16:50:00,
2013-10-14 10:55:00,64.1,34.4,29.98,SE,131,3.0,9.0,33,0.00,,,0.00,WeatherTracker,2013-10-14 16:55:00,
2013-10-14 11:00:00,64.6,34.1,29.98,East,92,5.0,9.0,32,0.00,,,0.00,WeatherTracker,2013-10-14 17:00:00,
2013-10-14 11:05:00,64.7,34.2,29.98,ESE,120,4.0,9.0,32,0.00,,,0.00,WeatherTracker,2013-10-14 17:05:00,
2013-10-14 11:10:00,65.3,33.9,29.98,SE,142,5.0,10.0,31,0.00,,,0.00,WeatherTracker,2013-10-14 17:10:00,
2013-10-14 11:15:00,64.6,33.3,29.97,SSE,148,5.0,10.0,31,0.00,,,0.00,WeatherTracker,2013-10-14 17:15:00,
2013-10-14 11:20:00,65.4,32.3,29.97,East,100,7.0,10.0,29,0.00,,,0.00,WeatherTracker,2013-10-14 17:20:00,
2013-10-14 11:25:00,65.0,31.1,29.97,ENE,73,10.0,10.0,28,0.00,,,0.00,WeatherTracker,2013-10-14 17:25:00,
2013-10-14 11:30:00,65.0,30.2,29.97,SE,134,5.0,17.0,27,0.00,,,0.00,WeatherTracker,2013-10-14 17:30:00,
2013-10-14 11:35:00,65.1,31.2,29.96,South,188,6.0,17.0,28,0.00,,,0.00,WeatherTracker,2013-10-14 17:35:00,
2013-10-14 11:40:00,65.2,30.4,29.96,SSE,148,4.0,13.0,27,0.00,,,0.00,WeatherTracker,2013-10-14 17:40:00,
2013-10-14 11:45:00,65.7,32.6,29.96,ESE,109,3.0,13.0,29,0.00,,,0.00,WeatherTracker,2013-10-14 17:45:00,
2013-10-14 11:50:00,66.2,32.1,29.96,East,98,1.0,12.0,28,0.00,,,0.00,WeatherTracker,2013-10-14 17:50:00,
2013-10-14 11:55:00,65.8,32.7,29.96,NE,45,4.0,12.0,29,0.00,,,0.00,WeatherTracker,2013-10-14 17:55:00,
2013-10-14 12:00:00,65.5,31.5,29.95,ESE,123,8.0,14.0,28,0.00,,,0.00,WeatherTracker,2013-10-14 18:00:00,
2013-10-14 12:05:00,65.5,32.4,29.95,SSE,157,1.0,14.0,29,0.00,,,0.00,WeatherTracker,2013-10-14 18:05:00,
2013-10-14 12:10:00,66.4,33.2,29.95,ESE,119,2.0,12.0,29,0.00,,,0.00,WeatherTracker,2013-10-14 18:10:00,
2013-10-14 12:15:00,66.5,32.4,29.95,East,100,7.0,13.0,28,0.00,,,0.00,WeatherTracker,2013-10-14 18:15:00,
2013-10-14 12:20:00,66.7,32.6,29.95,SE,135,8.0,13.0,28,0.00,,,0.00,WeatherTracker,2013-10-14 18:20:00,
2013-10-14 12:25:00,66.5,33.3,29.95,SE,142,3.0,12.0,29,0.00,,,0.00,WeatherTracker,2013-10-14 18:25:00,
2013-10-14 12:30:00,67.1,32.9,29.95,SSE,148,4.0,12.0,28,0.00,,,0.00,WeatherTracker,2013-10-14 18:30:00,
2013-10-14 12:35:00,66.8,32.6,29.95,ESE,119,2.0,14.0,28,0.00,,,0.00,WeatherTracker,2013-10-14 18:35:00,
2013-10-14 12:40:00,66.9,32.7,29.95,SE,130,3.0,14.0,28,0.00,,,0.00,WeatherTracker,2013-10-14 18:40:00,
2013-10-14 12:45:00,67.8,33.5,29.94,ESE,107,7.0,14.0,28,0.00,,,0.00,WeatherTracker,2013-10-14 18:45:00,
2013-10-14 12:51:00,66.0,32.8,29.94,SE,139,3.0,12.0,29,0.00,,,0.00,WeatherTracker,2013-10-14 18:51:00,
2013-10-14 12:56:00,67.0,32.8,29.93,SE,127,3.0,12.0,28,0.00,,,0.00,WeatherTracker,2013-10-14 18:56:00,
2013-10-14 13:01:00,66.5,33.3,29.93,South,172,3.0,7.0,29,0.00,,,0.00,WeatherTracker,2013-10-14 19:01:00,
2013-10-14 13:06:00,66.8,32.6,29.92,SSE,167,5.0,11.0,28,0.00,,,0.00,WeatherTracker,2013-10-14 19:06:00,
2013-10-14 13:11:00,66.7,32.6,29.92,SE,128,6.0,11.0,28,0.00,,,0.00,WeatherTracker,2013-10-14 19:11:00,
2013-10-14 13:16:00,67.7,32.5,29.91,SSE,158,1.0,7.0,27,0.00,,,0.00,WeatherTracker,2013-10-14 19:16:00,
2013-10-14 13:21:00,67.1,32.9,29.91,SSE,166,2.0,10.0,28,0.00,,,0.00,WeatherTracker,2013-10-14 19:21:00,
2013-10-14 13:26:00,67.8,32.6,29.91,East,88,2.0,10.0,27,0.00,,,0.00,WeatherTracker,2013-10-14 19:26:00,
2013-10-14 13:31:00,68.4,31.2,29.91,SE,134,3.0,8.0,25,0.00,,,0.00,WeatherTracker,2013-10-14 19:31:00,
2013-10-14 13:36:00,67.9,31.7,29.91,South,181,2.0,9.0,26,0.00,,,0.00,WeatherTracker,2013-10-14 19:36:00,
2013-10-14 13:41:00,69.0,32.7,29.91,SSE,149,1.0,9.0,26,0.00,,,0.00,WeatherTracker,2013-10-14 19:41:00,
2013-10-14 13:46:00,69.2,29.8,29.91,SE,136,8.0,12.0,23,0.00,,,0.00,WeatherTracker,2013-10-14 19:46:00,
2013-10-14 13:51:00,69.9,30.4,29.90,SE,138,6.0,12.0,23,0.00,,,0.00,WeatherTracker,2013-10-14 19:51:00,
2013-10-14 13:56:00,70.1,30.6,29.90,SSE,156,8.0,10.0,23,0.00,,,0.00,WeatherTracker,2013-10-14 19:56:00,
2013-10-14 14:01:00,69.5,31.1,29.90,SE,124,4.0,12.0,24,0.00,,,0.00,WeatherTracker,2013-10-14 20:01:00,
2013-10-14 14:06:00,70.1,30.6,29.89,SSE,147,5.0,12.0,23,0.00,,,0.00,WeatherTracker,2013-10-14 20:06:00,
2013-10-14 14:11:00,70.3,29.7,29.89,South,175,5.0,8.0,22,0.00,,,0.00,WeatherTracker,2013-10-14 20:11:00,
2013-10-14 14:17:00,70.1,28.4,29.89,SSW,194,0.0,11.0,21,0.00,,,0.00,WeatherTracker,2013-10-14 20:17:00,
2013-10-14 14:22:00,70.6,28.8,29.89,SE,140,3.0,11.0,21,0.00,,,0.00,WeatherTracker,2013-10-14 20:22:00,
2013-10-14 14:27:00,70.2,28.4,29.89,SSE,165,8.0,11.0,21,0.00,,,0.00,WeatherTracker,2013-10-14 20:27:00,
2013-10-14 14:32:00,69.9,28.2,29.89,SSE,152,3.0,13.0,21,0.00,,,0.00,WeatherTracker,2013-10-14 20:32:00,
2013-10-14 14:37:00,69.5,27.9,29.89,ESE,120,3.0,13.0,21,0.00,,,0.00,WeatherTracker,2013-10-14 20:37:00,
2013-10-14 14:42:00,70.0,29.4,29.89,SE,142,3.0,8.0,22,0.00,,,0.00,WeatherTracker,2013-10-14 20:42:00,
2013-10-14 14:47:00,70.9,29.0,29.89,WSW,255,2.0,9.0,21,0.00,,,0.00,WeatherTracker,2013-10-14 20:47:00,
2013-10-14 14:52:00,70.4,28.6,29.89,South,175,8.0,12.0,21,0.00,,,0.00,WeatherTracker,2013-10-14 20:52:00,
2013-10-14 14:57:00,70.7,28.8,29.89,SSE,154,7.0,12.0,21,0.00,,,0.00,WeatherTracker,2013-10-14 20:57:00,
2013-10-14 15:02:00,70.6,28.8,29.89,SSE,150,6.0,11.0,21,0.00,,,0.00,WeatherTracker,2013-10-14 21:02:00,
2013-10-14 15:07:00,70.4,26.2,29.89,ESE,103,7.0,11.0,19,0.00,,,0.00,WeatherTracker,2013-10-14 21:07:00,
2013-10-14 15:12:00,71.2,28.1,29.89,ESE,113,5.0,13.0,20,0.00,,,0.00,WeatherTracker,2013-10-14 21:12:00,
2013-10-14 15:17:00,71.2,28.1,29.89,ESE,120,7.0,13.0,20,0.00,,,0.00,WeatherTracker,2013-10-14 21:17:00,
2013-10-14 15:22:00,70.8,26.5,29.88,SSE,165,2.0,10.0,19,0.00,,,0.00,WeatherTracker,2013-10-14 21:22:00,
2013-10-14 15:27:00,70.9,27.8,29.88,SE,136,3.0,10.0,20,0.00,,,0.00,WeatherTracker,2013-10-14 21:27:00,
2013-10-14 15:32:00,70.9,27.8,29.89,SE,146,3.0,10.0,20,0.00,,,0.00,WeatherTracker,2013-10-14 21:32:00,
2013-10-14 15:38:00,71.3,26.9,29.89,ESE,123,4.0,10.0,19,0.00,,,0.00,WeatherTracker,2013-10-14 21:38:00,
2013-10-14 15:43:00,71.0,26.7,29.89,SSE,153,5.0,10.0,19,0.00,,,0.00,WeatherTracker,2013-10-14 21:43:00,
2013-10-14 15:48:00,70.8,26.5,29.89,SE,146,2.0,10.0,19,0.00,,,0.00,WeatherTracker,2013-10-14 21:48:00,
2013-10-14 15:53:00,70.7,26.4,29.89,East,95,5.0,12.0,19,0.00,,,0.00,WeatherTracker,2013-10-14 21:53:00,
2013-10-14 15:58:00,71.0,26.7,29.88,ESE,121,2.0,12.0,19,0.00,,,0.00,WeatherTracker,2013-10-14 21:58:00,
2013-10-14 16:03:00,70.9,25.3,29.89,ESE,123,8.0,14.0,18,0.00,,,0.00,WeatherTracker,2013-10-14 22:03:00,
2013-10-14 16:08:00,70.6,25.0,29.88,SSE,157,6.0,14.0,18,0.00,,,0.00,WeatherTracker,2013-10-14 22:08:00,
2013-10-14 16:13:00,70.2,23.3,29.88,SSE,155,4.0,11.0,17,0.00,,,0.00,WeatherTracker,2013-10-14 22:13:00,
2013-10-14 16:18:00,70.3,24.8,29.88,SSE,151,5.0,10.0,18,0.00,,,0.00,WeatherTracker,2013-10-14 22:18:00,
2013-10-14 16:23:00,70.5,25.0,29.88,SE,130,4.0,9.0,18,0.00,,,0.00,WeatherTracker,2013-10-14 22:23:00,
2013-10-14 16:28:00,70.3,23.4,29.88,WNW,292,0.0,9.0,17,0.00,,,0.00,WeatherTracker,2013-10-14 22:28:00,
2013-10-14 16:33:00,70.6,23.7,29.88,SW,226,2.0,9.0,17,0.00,,,0.00,WeatherTracker,2013-10-14 22:33:00,
2013-10-14 16:38:00,70.3,23.4,29.88,South,183,3.0,9.0,17,0.00,,,0.00,WeatherTracker,2013-10-14 22:38:00,
2013-10-14 16:43:00,70.1,21.8,29.88,ESE,120,1.0,9.0,16,0.00,,,0.00,WeatherTracker,2013-10-14 22:43:00,
2013-10-14 16:48:00,69.7,22.9,29.88,SE,142,4.0,9.0,17,0.00,,,0.00,WeatherTracker,2013-10-14 22:48:00,
2013-10-14 16:53:00,69.8,24.4,29.88,SE,136,3.0,9.0,18,0.00,,,0.00,WeatherTracker,2013-10-14 22:53:00,
2013-10-14 16:58:00,69.6,24.2,29.88,SW,214,1.0,9.0,18,0.00,,,0.00,WeatherTracker,2013-10-14 22:58:00,
2013-10-14 17:03:00,69.9,24.5,29.88,South,181,1.0,8.0,18,0.00,,,0.00,WeatherTracker,2013-10-14 23:03:00,
2013-10-14 17:08:00,70.0,23.2,29.88,SSE,157,4.0,7.0,17,0.00,,,0.00,WeatherTracker,2013-10-14 23:08:00,
2013-10-14 17:13:00,69.6,24.2,29.88,SE,134,5.0,7.0,18,0.00,,,0.00,WeatherTracker,2013-10-14 23:13:00,
2013-10-14 17:18:00,69.3,24.0,29.88,SSW,193,2.0,10.0,18,0.00,,,0.00,WeatherTracker,2013-10-14 23:18:00,
2013-10-14 17:23:00,69.2,23.9,29.89,SSE,151,4.0,10.0,18,0.00,,,0.00,WeatherTracker,2013-10-14 23:23:00,
2013-10-14 17:28:00,69.0,25.0,29.89,South,175,0.0,8.0,19,0.00,,,0.00,WeatherTracker,2013-10-14 23:28:00,
2013-10-14 17:33:00,68.9,23.7,29.89,SSE,151,5.0,7.0,18,0.00,,,0.00,WeatherTracker,2013-10-14 23:33:00,
2013-10-14 17:38:00,68.7,23.5,29.89,SSE,147,4.0,7.0,18,0.00,,,0.00,WeatherTracker,2013-10-14 23:38:00,
2013-10-14 17:44:00,68.4,24.5,29.89,South,184,1.0,5.0,19,0.00,,,0.00,WeatherTracker,2013-10-14 23:44:00,
2013-10-14 17:49:00,68.3,23.2,29.90,SSE,151,3.0,5.0,18,0.00,,,0.00,WeatherTracker,2013-10-14 23:49:00,
2013-10-14 17:54:00,68.0,22.9,29.90,SSW,196,2.0,6.0,18,0.00,,,0.00,WeatherTracker,2013-10-14 23:54:00,
2013-10-14 17:59:00,67.8,24.0,29.90,SSW,200,0.0,6.0,19,0.00,,,0.00,WeatherTracker,2013-10-14 23:59:00,
2013-10-14 18:04:00,67.5,23.8,29.90,SSW,194,0.0,6.0,19,0.00,,,0.00,WeatherTracker,2013-10-15 00:04:00,
2013-10-14 18:09:00,67.1,24.7,29.90,WSW,248,5.0,5.0,20,0.00,,,0.00,WeatherTracker,2013-10-15 00:09:00,
2013-10-14 18:14:00,66.9,23.3,29.91,SSE,163,1.0,6.0,19,0.00,,,0.00,WeatherTracker,2013-10-15 00:14:00,
2013-10-14 18:19:00,66.7,23.1,29.91,ENE,66,0.0,6.0,19,0.00,,,0.00,WeatherTracker,2013-10-15 00:19:00,
2013-10-14 18:24:00,66.4,21.6,29.91,South,169,0.0,3.0,18,0.00,,,0.00,WeatherTracker,2013-10-15 00:24:00,
2013-10-14 18:29:00,66.0,22.6,29.91,WNW,303,1.0,3.0,19,0.00,,,0.00,WeatherTracker,2013-10-15 00:29:00,
2013-10-14 18:34:00,65.6,22.2,29.91,WNW,290,0.0,3.0,19,0.00,,,0.00,WeatherTracker,2013-10-15 00:34:00,
2013-10-14 18:39:00,65.2,21.9,29.91,SW,226,5.0,5.0,19,0.00,,,0.00,WeatherTracker,2013-10-15 00:39:00,
2013-10-14 18:44:00,64.9,21.7,29.92,East,84,1.0,5.0,19,0.00,,,0.00,WeatherTracker,2013-10-15 00:44:00,
2013-10-14 18:49:00,64.5,22.5,29.92,NW,304,0.0,5.0,20,0.00,,,0.00,WeatherTracker,2013-10-15 00:49:00,
2013-10-14 18:54:00,63.9,23.2,29.92,NW,304,0.0,5.0,21,0.00,,,0.00,WeatherTracker,2013-10-15 00:54:00,
2013-10-14 19:00:00,63.5,24.0,29.93,WSW,254,0.0,4.0,22,0.00,,,0.00,WeatherTracker,2013-10-15 01:00:00,
2013-10-14 19:05:00,63.0,23.6,29.93,NW,320,0.0,4.0,22,0.00,,,0.00,WeatherTracker,2013-10-15 01:05:00,
2013-10-14 19:10:00,62.2,24.0,29.93,NW,320,0.0,3.0,23,0.00,,,0.00,WeatherTracker,2013-10-15 01:10:00,
2013-10-14 19:15:00,61.8,23.6,29.94,SW,223,0.0,4.0,23,0.00,,,0.00,WeatherTracker,2013-10-15 01:15:00,
2013-10-14 19:20:00,61.4,24.3,29.94,SW,223,0.0,4.0,24,0.00,,,0.00,WeatherTracker,2013-10-15 01:20:00,
2013-10-14 19:25:00,61.0,24.9,29.94,West,265,0.0,3.0,25,0.00,,,0.00,WeatherTracker,2013-10-15 01:25:00,
2013-10-14 19:30:00,60.7,23.7,29.94,West,265,0.0,3.0,24,0.00,,,0.00,WeatherTracker,2013-10-15 01:30:00,
2013-10-14 19:35:00,60.5,24.5,29.94,SW,230,0.0,3.0,25,0.00,,,0.00,WeatherTracker,2013-10-15 01:35:00,
2013-10-14 19:40:00,60.4,24.4,29.95,West,266,0.0,5.0,25,0.00,,,0.00,WeatherTracker,2013-10-15 01:40:00,
2013-10-14 19:45:00,60.0,24.1,29.95,North,360,0.0,5.0,25,0.00,,,0.00,WeatherTracker,2013-10-15 01:45:00,
2013-10-14 19:50:00,60.1,23.2,29.95,SSW,194,0.0,3.0,24,0.00,,,0.00,WeatherTracker,2013-10-15 01:50:00,
2013-10-14 19:55:00,60.1,24.2,29.95,SSW,194,0.0,3.0,25,0.00,,,0.00,WeatherTracker,2013-10-15 01:55:00,
2013-10-14 20:00:00,59.6,23.7,29.95,West,270,0.0,3.0,25,0.00,,,0.00,WeatherTracker,2013-10-15 02:00:00,
2013-10-14 20:05:00,59.8,21.9,29.95,West,259,7.0,7.0,23,0.00,,,0.00,WeatherTracker,2013-10-15 02:05:00,
2013-10-14 20:10:00,60.2,21.2,29.95,WSW,255,3.0,7.0,22,0.00,,,0.00,WeatherTracker,2013-10-15 02:10:00,
2013-10-14 20:15:00,60.4,21.4,29.96,WSW,247,1.0,7.0,22,0.00,,,0.00,WeatherTracker,2013-10-15 02:15:00,
2013-10-14 20:20:00,60.3,21.3,29.96,NNW,338,0.0,5.0,22,0.00,,,0.00,WeatherTracker,2013-10-15 02:20:00,
2013-10-14 20:25:00,60.0,21.1,29.96,WNW,291,0.0,4.0,22,0.00,,,0.00,WeatherTracker,2013-10-15 02:25:00,
2013-10-14 20:31:00,59.5,20.6,29.96,WNW,291,0.0,3.0,22,0.00,,,0.00,WeatherTracker,2013-10-15 02:31:00,
2013-10-14 20:36:00,59.2,20.4,29.97,WNW,291,0.0,2.0,22,0.00,,,0.00,WeatherTracker,2013-10-15 02:36:00,
2013-10-14 20:41:00,58.9,21.2,29.97,WNW,291,0.0,2.0,23,0.00,,,0.00,WeatherTracker,2013-10-15 02:41:00,
2013-10-14 20:46:00,58.6,20.9,29.97,West,279,0.0,3.0,23,0.00,,,0.00,WeatherTracker,2013-10-15 02:46:00,
2013-10-14 20:51:00,58.4,20.8,29.97,West,278,0.0,3.0,23,0.00,,,0.00,WeatherTracker,2013-10-15 02:51:00,
2013-10-14 20:56:00,58.2,21.6,29.97,West,278,0.0,3.0,24,0.00,,,0.00,WeatherTracker,2013-10-15 02:56:00,
2013-10-14 21:01:00,57.9,21.3,29.97,West,281,0.0,2.0,24,0.00,,,0.00,WeatherTracker,2013-10-15 03:01:00,
2013-10-14 21:06:00,57.9,21.3,29.98,SW,232,0.0,3.0,24,0.00,,,0.00,WeatherTracker,2013-10-15 03:06:00,
2013-10-14 21:11:00,58.1,21.5,29.98,WSW,238,0.0,4.0,24,0.00,,,0.00,WeatherTracker,2013-10-15 03:11:00,
2013-10-14 21:16:00,58.2,20.6,29.98,SW,235,0.0,4.0,23,0.00,,,0.00,WeatherTracker,2013-10-15 03:16:00,
2013-10-14 21:21:00,58.1,20.5,29.98,SSW,196,0.0,3.0,23,0.00,,,0.00,WeatherTracker,2013-10-15 03:21:00,
2013-10-14 21:26:00,58.0,21.4,29.99,SW,229,0.0,3.0,24,0.00,,,0.00,WeatherTracker,2013-10-15 03:26:00,
2013-10-14 21:31:00,57.9,21.3,29.99,SW,216,0.0,3.0,24,0.00,,,0.00,WeatherTracker,2013-10-15 03:31:00,
2013-10-14 21:36:00,57.7,21.2,29.99,WNW,291,0.0,2.0,24,0.00,,,0.00,WeatherTracker,2013-10-15 03:36:00,
2013-10-14 21:41:00,57.5,21.0,29.99,SSW,200,0.0,2.0,24,0.00,,,0.00,WeatherTracker,2013-10-15 03:41:00,
2013-10-14 21:47:00,57.3,21.8,30.00,West,262,0.0,2.0,25,0.00,,,0.00,WeatherTracker,2013-10-15 03:47:00,
2013-10-14 21:52:00,57.0,21.5,30.00,WSW,255,0.0,3.0,25,0.00,,,0.00,WeatherTracker,2013-10-15 03:52:00,
2013-10-14 21:57:00,56.7,21.3,30.00,WSW,255,0.0,3.0,25,0.00,,,0.00,WeatherTracker,2013-10-15 03:57:00,
2013-10-14 22:02:00,56.6,22.1,30.00,WSW,255,0.0,3.0,26,0.00,,,0.00,WeatherTracker,2013-10-15 04:02:00,
2013-10-14 22:03:00,56.2,21.8,30.00,WSW,255,0.0,1.0,26,0.00,,,0.00,WeatherTracker,2013-10-15 04:03:00,
2013-10-14 22:05:00,56.0,22.5,30.00,WSW,255,0.0,1.0,27,0.00,,,0.00,WeatherTracker,2013-10-15 04:05:00,
2013-10-14 22:10:00,55.5,22.9,30.00,WSW,255,0.0,1.0,28,0.00,,,0.00,WeatherTracker,2013-10-15 04:10:00,
2013-10-14 22:15:00,55.1,22.6,30.00,WSW,255,0.0,1.0,28,0.00,,,0.00,WeatherTracker,2013-10-15 04:15:00,
2013-10-14 22:20:00,54.6,23.0,30.00,WSW,255,0.0,1.0,29,0.00,,,0.00,WeatherTracker,2013-10-15 04:20:00,
2013-10-14 22:26:00,54.3,22.7,30.00,WSW,257,0.0,2.0,29,0.00,,,0.00,WeatherTracker,2013-10-15 04:26:00,
2013-10-14 22:31:00,54.1,22.6,30.00,WSW,257,0.0,2.0,29,0.00,,,0.00,WeatherTracker,2013-10-15 04:31:00,
2013-10-14 22:36:00,53.9,23.2,30.00,WSW,257,0.0,1.0,30,0.00,,,0.00,WeatherTracker,2013-10-15 04:36:00,
2013-10-14 22:41:00,53.7,23.0,30.00,WSW,257,0.0,1.0,30,0.00,,,0.00,WeatherTracker,2013-10-15 04:41:00,
2013-10-14 22:46:00,53.2,22.6,30.01,WSW,257,0.0,1.0,30,0.00,,,0.00,WeatherTracker,2013-10-15 04:46:00,
2013-10-14 22:51:00,52.6,22.8,30.01,WSW,257,0.0,1.0,31,0.00,,,0.00,WeatherTracker,2013-10-15 04:51:00,
2013-10-14 22:56:00,52.2,23.2,30.01,WSW,257,0.0,0.0,32,0.00,,,0.00,WeatherTracker,2013-10-15 04:56:00,
2013-10-14 23:01:00,51.8,23.6,30.01,WSW,257,0.0,0.0,33,0.00,,,0.00,WeatherTracker,2013-10-15 05:01:00,
2013-10-14 23:06:00,51.4,23.3,30.01,WSW,257,0.0,0.0,33,0.00,,,0.00,WeatherTracker,2013-10-15 05:06:00,
2013-10-14 23:11:00,51.3,23.2,30.01,WSW,257,0.0,0.0,33,0.00,,,0.00,WeatherTracker,2013-10-15 05:11:00,
2013-10-14 23:16:00,51.1,23.7,30.01,WSW,257,0.0,0.0,34,0.00,,,0.00,WeatherTracker,2013-10-15 05:16:00,
2013-10-14 23:21:00,50.7,24.1,30.01,WSW,257,0.0,0.0,35,0.00,,,0.00,WeatherTracker,2013-10-15 05:21:00,
2013-10-14 23:26:00,50.5,23.9,30.01,WSW,257,0.0,0.0,35,0.00,,,0.00,WeatherTracker,2013-10-15 05:26:00,
2013-10-14 23:32:00,50.3,24.4,30.01,WSW,257,0.0,0.0,36,0.00,,,0.00,WeatherTracker,2013-10-15 05:32:00,
2013-10-14 23:37:00,50.2,24.3,30.01,WSW,257,0.0,0.0,36,0.00,,,0.00,WeatherTracker,2013-10-15 05:37:00,
2013-10-14 23:42:00,49.9,24.0,30.02,WSW,257,0.0,0.0,36,0.00,,,0.00,WeatherTracker,2013-10-15 05:42:00,
2013-10-14 23:47:00,49.8,23.9,30.02,WSW,257,0.0,0.0,36,0.00,,,0.00,WeatherTracker,2013-10-15 05:47:00,
2013-10-14 23:52:00,49.7,23.8,30.02,WSW,257,0.0,0.0,36,0.00,,,0.00,WeatherTracker,2013-10-15 05:52:00,
2013-10-14 23:57:00,49.8,24.6,30.02,WSW,257,0.0,0.0,37,0.00,,,0.00,WeatherTracker,2013-10-15 05:57:00,